Regional Weather Roundup
Issued by NWS

Home | Current Version | Previous Version | Text Only | Print | Product List | Glossary On
Versions: 1 2 3 4 5 6 7 8 9 10 11 12 13 14 15 16 17 18 19 20 21 22 23 24 25 26 27 28 29 30 31 32 33 34 35 36 37 38 39 40 41 42 43 44 45 46 47 48 49 50
000
ASUS46 KPQR 280910
RWROR

OREGON REGIONAL WEATHER ROUNDUP
NATIONAL WEATHER SERVICE PORTLAND OR
100 AM PST WED JAN 28 2015

NOTE: "FAIR" INDICATES FEW OR NO CLOUDS BELOW 12,000 FEET WITH
NO SIGNIFICANT WEATHER AND/OR OBSTRUCTIONS TO VISIBILITY.

ORZ001>013-281000-
NORTHWEST OREGON


CITY           SKY/WX    TMP DP  RH WIND       PRES   REMARKS
ASTORIA        CLOUDY    47  44  90 CALM      30.29R
NEWPORT        CLOUDY    50  50 100 E3        30.30R
PORTLAND       DRIZZLE   48  48 100 W3        30.29S FOG
VANCOUVER WA   CLOUDY    47  46  97 CALM      30.29R FOG
SCAPPOOSE      CLOUDY    47  47 100 CALM      30.29R FOG
HILLSBORO      FOG       47  47 100 CALM      30.28S VSB 1
AURORA         FOG       49  48  97 CALM      30.29S VSB 3/4
MCMINNVILLE    FOG       49  48  97 N3        30.29R VSB 3/4
SALEM          CLOUDY    51  48  89 S5        30.27S
CORVALLIS      CLOUDY    48  45  87 CALM      30.29R VSB 1/2
EUGENE         CLOUDY    50  47  89 S5        30.28S
$$

ORZ021-028-281000-
SOUTHWEST OREGON


CITY           SKY/WX    TMP DP  RH WIND       PRES   REMARKS
NORTH BEND     CLOUDY    48  48 100 SE6       30.29S
BROOKINGS      CLOUDY    50  50 100 CALM      30.27S
ROSEBURG       PTCLDY    44  41  89 CALM      30.29R
SEXTON SUMMIT  PTCLDY    42  34  73 S10       30.25S
MEDFORD        PTCLDY    39  37  92 S3        30.29R FOG
$$

ORZ014>016-041-281000-
COLUMBIA GORGE


CITY           SKY/WX    TMP DP  RH WIND       PRES   REMARKS
TROUTDALE      CLOUDY    50  48  93 CALM      30.28R FOG
THE DALLES     CLOUDY    46  42  86 E3        30.26R
$$

ORZ029>031-041-044-049-050-061>064-502-503-505>511-281000-
EASTERN OREGON


CITY           SKY/WX    TMP DP  RH WIND       PRES   REMARKS
REDMOND        CLOUDY    34  31  88 CALM      30.24R
BEND           CLOUDY    36  32  87 CALM      30.25S
PRINEVILLE     CLOUDY    37  34  87 CALM      30.25R
KLAMATH FALLS  MOCLDY    35  32  88 CALM      30.28S
LAKEVIEW       CLOUDY    36  32  87 S7        30.30S WCI  30
HERMISTON      FOG       34  34 100 NW3       30.25R VSB<1/4
PENDLETON      PTCLDY    44  38  79 S6        30.22R
JOHN DAY       CLOUDY    39  35  84 SE3       30.25R
MEACHAM        CLOUDY    41  37  86 CALM      30.21R
LA GRANDE      CLOUDY    39  30  70 CALM      30.21R
BAKER CITY     MOCLDY    27  27 100 CALM      30.22R
BURNS          CLOUDY    30  29  96 CALM      30.25R
ROME             N/A     38  33  82 SE8       30.21R WCI  32
ONTARIO        FOG       33  32  96 CALM      30.26R VSB 1
$$


USA.gov is the U.S. government's official web portal to all federal, state and local government web resources and services.